Вернуться в каталог

STARLINK-5535

АктивенСвязьSSO
NORAD 56356·PAYLOAD·🇺🇸 United States

Запущен Apr 27, 2023 с Vandenberg Space Force Base

Loading…

Ближайшие Пролёты (ближайшие 24 часа)

TLE

СвежийSource: CelesTrak SupGP

Эпоха: Sep 14, 2026, 20:37 UTC

1 56356C 23058AR  26257.85951389  .00066441  00000+0  20627-2 0  2579
2 56356  97.2846 254.6571 0001522  87.9104  70.1127 15.33401957    19

Отслеживайте STARLINK-5535 в реальном времени с AllMySat

Download on the App Store